Wind_Speed
3 3 3 3 3 3 3 4 4 4 5 5 5 5 5 5 5 5 5 5 4 3 2 1 1 0 1 1 2 3 3 3 4 4 4 4 5 5 5 4 4 4 3
3 3 2 3 3 3 3 3 4 4 5 5 5 6 5 5 5 5 5 5 4 4 3 2 1 1 1 1 2 2 3 3 3 4 5 5 5 5 6 5 5 5 4
3 2 2 3 3 3 2 3 4 4 5 6 6 6 6 5 5 5 5 5 5 4 4 3 2 2 2 2 2 2 3 3 3 4 4 5 5 6 6 6 6 6 5
3 3 2 2 2 2 2 3 4 5 5 6 6 7 6 6 6 6 6 6 5 5 5 4 3 3 3 3 3 3 3 4 4 4 4 5 6 6 6 7 6 6 6
4 3 2 1 1 1 2 3 4 5 5 6 7 7 7 7 6 6 7 7 6 6 5 5 5 4 4 4 5 4 4 5 5 5 6 6 6 6 7 7 7 7 7
4 3 2 1 0 1 2 3 4 4 5 6 6 7 7 7 7 7 7 7 7 6 6 5 5 5 4 4 5 5 5 5 5 6 7 7 7 7 7 7 7 7 8
4 3 2 0 0 1 2 3 4 4 5 6 6 7 7 7 7 7 7 8 7 7 7 6 5 4 4 5 5 5 5 6 6 6 7 7 7 7 7 7 7 7 7
5 4 2 1 1 1 2 3 4 4 5 6 6 7 8 8 8 8 8 8 8 8 7 6 5 5 5 5 6 6 6 6 6 6 7 7 7 7 8 8 7 7 7
5 4 2 1 1 1 2 2 3 4 5 6 7 8 8 8 9 8 8 8 9 8 7 6 5 5 5 5 5 6 6 6 5 6 6 7 7 7 8 8 8 7 7
6 4 3 2 1 1 1 2 3 4 5 6 7 8 8 9 9 9 8 8 9 8 7 6 6 5 5 5 5 5 6 6 6 6 6 6 6 6 7 8 8 8 8
6 5 3 2 1 1 1 2 3 3 4 6 7 8 8 8 9 9 9 9 9 8 7 6 6 5 5 4 4 5 5 5 6 6 6 6 6 6 8 8 9 9 9
5 4 3 2 2 1 1 3 3 3 4 5 7 7 8 9 9 9 9 9 9 8 8 7 6 5 5 5 4 4 4 5 5 6 6 6 7 7 8 9 10 10 10
5 4 4 3 2 1 2 3 3 4 5 6 6 7 8 9 9 9 9 9 9 8 8 7 7 6 5 5 4 3 3 4 5 6 6 6 7 7 8 8 9 10 10
6 5 4 3 2 2 2 3 3 4 5 6 6 7 8 9 9 9 9 10 9 9 8 7 7 6 5 4 4 3 2 3 4 5 6 6 7 7 7 8 9 10 10
6 5 4 3 3 3 3 3 3 4 5 5 6 7 8 8 9 9 9 10 9 9 8 8 7 6 5 5 4 3 2 3 3 4 6 6 6 7 8 8 9 10 10
6 6 5 4 4 3 2 3 3 3 4 5 6 6 7 8 9 9 9 9 9 9 9 8 7 7 6 5 5 4 3 3 3 4 5 6 7 7 8 8 9 10 11
7 6 5 4 3 3 2 2 3 3 4 5 5 6 7 8 8 9 9 10 10 9 8 8 7 7 7 7 6 6 5 4 3 4 4 5 7 7 8 8 9 10 10
7 6 6 4 3 3 3 2 3 3 4 4 5 6 6 8 8 9 9 10 10 10 9 8 7 7 7 7 7 7 6 5 5 4 4 5 6 7 8 8 8 9 10
7 6 6 4 4 4 3 3 3 3 3 4 4 5 6 7 8 8 9 9 10 10 9 8 8 7 7 7 8 8 7 6 6 5 6 6 7 7 8 8 9 10 10
8 7 6 5 4 4 4 3 3 3 4 4 4 5 6 7 7 8 8 9 9 9 9 8 8 8 8 8 8 8 8 7 7 6 7 7 7 7 8 8 9 9 10
8 7 6 5 4 4 4 4 4 4 4 4 5 5 6 6 7 8 8 8 8 8 9 9 8 8 8 8 8 8 8 8 7 7 7 8 8 8 8 8 9 9 9
9 8 7 5 4 5 4 4 4 4 5 5 5 5 6 7 7 7 8 8 8 8 8 8 8 8 8 8 8 8 8 8 8 9 9 9 8 8 8 8 9 9 10
9 8 7 6 5 5 5 4 4 5 5 5 5 6 6 7 7 7 8 8 8 8 8 8 8 8 8 8 8 9 9 9 10 10 10 9 9 9 9 9 9 9 10
10 9 8 7 6 6 5 5 5 6 6 6 6 7 7 7 8 8 8 8 8 8 7 8 8 8 9 9 9 9 10 10 11 11 11 10 10 10 10 10 11 11 11
10 9 8 8 7 6 6 7 7 7 7 7 7 7 8 8 8 8 8 8 8 8 8 8 8 8 9 9 10 10 10 11 11 11 11 11 11 11 11 11 12 12 12
10 9 9 8 8 8 8 8 8 8 8 8 8 8 8 8 9 9 9 9 9 8 8 8 8 9 10 10 10 11 11 12 12 12 12 11 11 12 12 12 12 12 13
Wind_Direction
131 114 105 101 94 82 70 55 41 34 29 28 29 28 25 25 27 27 28 27 23 17 15 15 36 16 222 218 203 209 214 209 209 216 215 222 219 220 221 214 209 205 208
145 125 114 107 97 84 68 47 35 31 29 26 22 22 20 18 20 21 17 13 13 8 357 342 322 291 281 263 226 220 215 213 218 218 220 228 233 230 224 218 220 214 218
167 143 122 105 102 95 61 34 25 24 22 18 16 16 14 12 13 11 7 1 359 355 344 334 311 289 274 262 244 236 227 228 224 229 231 228 234 237 228 226 225 219 220
171 163 140 107 94 75 44 20 17 17 16 14 15 15 12 10 8 7 3 354 349 346 339 329 317 302 280 268 256 243 236 238 240 240 238 232 235 236 232 231 229 222 223
170 168 156 144 93 31 22 8 7 14 15 15 15 13 10 9 6 3 360 352 346 341 336 325 313 304 286 272 263 253 246 244 244 245 241 236 234 233 232 234 234 227 227
181 178 165 150 110 26 11 9 8 11 12 11 9 9 8 7 5 2 359 354 350 345 336 326 312 299 287 272 264 257 253 249 247 245 241 237 236 237 235 238 237 231 232
186 183 186 165 351 4 0 2 6 8 8 7 9 11 8 6 6 4 359 357 353 349 342 330 318 304 288 272 262 256 255 253 251 248 241 238 240 240 238 239 237 232 234
188 190 201 230 277 320 349 359 6 9 10 12 16 14 12 9 7 4 360 359 356 351 343 335 328 311 294 280 268 262 257 252 253 254 247 241 241 242 238 237 233 234 238
193 195 206 225 289 311 332 2 14 16 15 17 20 16 10 8 6 2 1 360 358 356 350 339 334 327 309 290 277 267 260 255 255 250 246 246 246 245 238 232 231 234 239
202 203 204 217 289 336 344 13 15 16 14 14 15 12 11 8 5 3 2 1 1 0 358 349 341 335 320 295 276 265 258 255 252 245 246 248 249 246 238 231 232 239 242
202 201 214 230 250 319 359 354 356 8 9 8 7 6 5 5 3 4 4 4 5 5 3 357 350 341 331 316 289 269 260 255 253 246 247 249 251 250 242 238 239 242 245
210 215 232 253 259 285 335 343 339 351 357 1 2 3 3 4 6 5 5 6 8 7 4 0 355 346 339 327 310 287 268 260 255 252 252 255 257 256 252 246 244 245 246
221 227 241 260 268 288 314 326 340 346 353 355 358 1 5 7 8 7 6 4 3 3 2 3 2 356 345 338 327 303 277 267 259 255 257 262 263 260 257 249 245 246 247
226 236 251 255 255 269 302 321 340 349 348 353 359 5 7 6 8 9 8 6 5 6 5 2 3 3 2 2 354 334 298 279 266 258 257 264 261 261 262 254 252 251 249
230 239 252 253 265 269 287 314 328 341 344 352 359 2 4 4 7 9 7 6 6 6 5 3 5 9 13 11 7 354 322 297 283 267 264 263 261 261 263 260 257 256 255
232 241 247 258 269 275 294 319 326 335 342 348 355 357 1 5 5 6 9 7 6 6 8 11 11 13 16 15 13 8 357 335 307 285 277 272 268 268 267 265 262 261 260
232 243 244 251 264 272 293 312 321 330 338 344 350 356 359 3 5 8 12 10 8 7 9 10 15 20 22 22 20 15 10 355 334 307 291 286 279 276 274 269 266 266 266
231 238 238 244 255 264 281 300 305 317 332 340 346 353 358 2 4 5 7 7 8 9 11 13 19 23 21 19 16 11 7 1 349 332 318 306 294 288 282 276 274 273 271
232 235 237 239 251 257 270 287 294 308 325 333 337 346 353 356 359 2 3 5 7 10 13 14 19 18 15 13 10 7 3 356 344 331 323 315 305 295 288 282 279 277 278
232 236 244 243 246 256 264 278 285 300 314 320 325 334 342 350 354 356 356 360 4 7 11 11 12 12 10 7 3 2 359 351 343 332 326 319 312 305 298 288 283 280 281
229 234 241 244 246 252 264 273 282 291 301 310 315 322 334 345 349 350 351 353 356 360 4 7 8 8 7 4 2 1 359 356 350 343 337 330 321 312 305 295 287 284 283
227 231 237 238 249 255 261 269 278 289 299 303 311 318 325 334 339 344 347 348 349 352 355 359 4 5 4 1 358 357 355 355 355 352 345 338 329 319 312 302 294 286 283
227 230 234 240 250 256 259 265 275 285 292 300 307 311 317 324 328 334 337 339 342 344 345 349 352 357 355 354 353 352 350 348 346 344 342 339 332 327 321 313 307 297 288
225 231 236 244 250 254 257 266 274 282 289 295 301 306 312 317 322 324 328 332 336 337 337 340 342 343 345 346 345 345 344 343 343 341 338 335 329 325 321 314 308 303 295
227 232 240 245 247 252 260 263 270 276 283 291 299 304 309 313 316 317 318 323 327 329 329 331 333 334 334 334 336 338 339 338 339 338 334 330 324 319 318 314 308 304 299
231 235 242 248 250 254 259 263 266 273 281 287 294 302 305 309 312 311 311 314 317 318 320 321 322 324 325 326 328 330 330 331 331 331 329 327 321 317 314 312 308 306 302
Height
5895 5895 5896 5896 5896 5896 5896 5895 5895 5894 5894 5893 5892 5892 5891 5890 5890 5889 5888 5888 5887 5887 5886 5886 5886 5886 5886 5886 5886 5887 5887 5888 5888 5889 5889 5890 5891 5892 5892 5893 5894 5895 5896
5895 5896 5896 5896 5896 5896 5896 5896 5895 5895 5894 5894 5893 5892 5891 5891 5890 5889 5889 5888 5888 5887 5886 5886 5886 5886 5886 5886 5886 5886 5886 5887 5888 5888 5889 5890 5890 5891 5892 5893 5894 5895 5896
5896 5896 5896 5896 5897 5897 5897 5896 5896 5895 5895 5894 5893 5892 5892 5891 5890 5890 5889 5888 5887 5887 5886 5886 5886 5885 5885 5885 5886 5886 5886 5887 5887 5888 5888 5889 5890 5890 5891 5892 5893 5894 5895
5896 5896 5897 5897 5897 5897 5897 5897 5896 5896 5895 5894 5894 5893 5892 5891 5890 5889 5889 5888 5887 5886 5886 5885 5885 5885 5885 5885 5885 5885 5886 5886 5887 5887 5888 5888 5889 5890 5890 5891 5892 5893 5895
5896 5897 5897 5897 5897 5897 5897 5897 5897 5896 5895 5895 5894 5893 5892 5891 5890 5889 5889 5888 5887 5886 5885 5885 5884 5884 5884 5884 5884 5884 5885 5885 5886 5886 5887 5887 5888 5889 5890 5890 5891 5893 5894
5896 5897 5897 5897 5898 5898 5898 5897 5897 5896 5896 5895 5894 5893 5892 5891 5890 5889 5888 5887 5886 5885 5884 5884 5883 5883 5883 5883 5883 5883 5884 5884 5885 5885 5886 5886 5887 5888 5889 5890 5891 5892 5893
5897 5897 5897 5898 5898 5898 5898 5898 5897 5897 5896 5895 5894 5893 5892 5891 5890 5889 5888 5887 5886 5885 5883 5882 5882 5882 5881 5881 5881 5882 5882 5883 5884 5884 5885 5885 5886 5887 5888 5889 5890 5891 5892
5897 5897 5898 5898 5898 5898 5898 5898 5897 5897 5896 5895 5895 5894 5893 5891 5890 5889 5888 5886 5885 5884 5883 5882 5881 5880 5880 5880 5880 5881 5881 5882 5883 5883 5884 5884 5885 5885 5886 5887 5889 5890 5891
5897 5897 5898 5898 5898 5898 5898 5898 5898 5897 5897 5896 5895 5894 5893 5892 5890 5889 5888 5886 5885 5883 5882 5881 5880 5879 5879 5879 5879 5879 5880 5881 5881 5882 5883 5883 5884 5884 5885 5886 5887 5889 5890
5897 5897 5898 5898 5898 5898 5898 5898 5898 5897 5897 5896 5895 5894 5893 5892 5890 5889 5887 5886 5884 5883 5881 5880 5879 5878 5878 5878 5878 5878 5879 5879 5880 5881 5881 5882 5883 5883 5884 5885 5886 5887 5888
5897 5897 5898 5898 5898 5899 5899 5898 5898 5898 5897 5896 5895 5894 5893 5892 5890 5889 5887 5886 5884 5882 5881 5880 5879 5878 5877 5877 5877 5877 5877 5878 5879 5880 5880 5881 5882 5882 5883 5884 5885 5886 5887
5896 5897 5898 5898 5898 5899 5899 5899 5898 5898 5897 5896 5896 5895 5893 5892 5890 5889 5887 5885 5884 5882 5881 5879 5878 5877 5877 5876 5876 5876 5876 5877 5878 5878 5879 5880 5880 5881 5882 5882 5883 5884 5885
5896 5897 5897 5898 5898 5898 5899 5898 5898 5898 5897 5897 5896 5895 5893 5892 5890 5889 5887 5885 5884 5882 5881 5879 5878 5877 5876 5876 5875 5875 5875 5876 5877 5877 5878 5878 5879 5880 5880 5881 5882 5883 5883
5896 5897 5897 5897 5898 5898 5898 5898 5898 5897 5897 5896 5896 5895 5893 5892 5891 5889 5887 5886 5884 5882 5881 5879 5878 5877 5876 5875 5875 5875 5875 5875 5876 5876 5876 5877 5878 5878 5879 5879 5880 5881 5882
5895 5896 5897 5897 5897 5898 5898 5898 5898 5897 5897 5896 5895 5894 5893 5892 5891 5889 5888 5886 5884 5882 5881 5879 5878 5877 5876 5875 5875 5874 5874 5875 5875 5875 5875 5876 5876 5877 5877 5878 5879 5879 5880
5894 5895 5896 5896 5897 5897 5898 5898 5898 5897 5897 5896 5895 5894 5893 5892 5891 5890 5888 5886 5884 5883 5881 5880 5878 5877 5876 5876 5875 5874 5874 5874 5874 5874 5874 5875 5875 5876 5876 5876 5877 5877 5878
5894 5895 5895 5896 5896 5897 5897 5897 5897 5897 5896 5896 5895 5894 5894 5892 5891 5890 5888 5887 5885 5883 5882 5880 5879 5878 5877 5876 5875 5875 5874 5873 5873 5873 5874 5874 5874 5874 5874 5875 5875 5876 5876
5893 5894 5894 5895 5896 5896 5897 5897 5897 5896 5896 5896 5895 5894 5894 5893 5891 5890 5889 5887 5885 5884 5882 5881 5880 5878 5877 5877 5876 5875 5874 5874 5873 5873 5873 5873 5873 5873 5873 5873 5874 5874 5874
5892 5893 5893 5894 5895 5895 5896 5896 5896 5896 5896 5895 5895 5894 5894 5893 5891 5890 5889 5887 5886 5884 5883 5882 5880 5879 5878 5877 5876 5875 5874 5874 5873 5873 5872 5872 5871 5871 5871 5872 5872 5872 5873
5891 5892 5892 5893 5894 5894 5895 5895 5895 5896 5895 5895 5895 5894 5893 5892 5891 5890 5889 5888 5886 5885 5884 5882 5881 5879 5878 5877 5876 5875 5874 5873 5873 5872 5871 5871 5870 5870 5870 5870 5870 5870 5870
5889 5890 5891 5892 5893 5893 5894 5894 5894 5895 5895 5895 5894 5894 5893 5892 5891 5890 5889 5887 5886 5885 5884 5883 5881 5880 5879 5877 5876 5875 5874 5873 5872 5871 5871 5870 5869 5868 5868 5868 5868 5868 5868
5888 5889 5890 5891 5892 5892 5893 5893 5893 5894 5894 5894 5893 5893 5892 5891 5890 5890 5888 5887 5886 5885 5884 5883 5882 5880 5879 5878 5877 5876 5875 5874 5872 5871 5870 5869 5868 5867 5866 5866 5866 5866 5866
5886 5888 5889 5890 5890 5891 5891 5892 5892 5893 5893 5893 5893 5892 5891 5890 5890 5889 5888 5887 5886 5885 5884 5883 5881 5880 5879 5878 5877 5876 5875 5873 5872 5871 5869 5868 5867 5866 5865 5864 5864 5863 5863
5884 5886 5887 5888 5889 5889 5890 5891 5891 5892 5892 5892 5892 5891 5890 5889 5889 5888 5887 5886 5885 5884 5883 5882 5881 5880 5879 5878 5877 5875 5874 5873 5871 5870 5868 5866 5865 5864 5863 5862 5861 5861 5860
5883 5884 5885 5886 5887 5888 5889 5889 5890 5890 5890 5890 5890 5889 5889 5888 5888 5887 5886 5885 5884 5883 5882 5881 5880 5879 5878 5877 5876 5874 5873 5872 5870 5869 5867 5865 5864 5862 5861 5860 5859 5858 5857
5881 5882 5883 5884 5885 5886 5886 5887 5888 5888 5889 5888 5888 5888 5887 5887 5886 5885 5885 5884 5883 5882 5881 5880 5879 5878 5877 5876 5875 5873 5872 5870 5869 5867 5865 5863 5862 5860 5858 5857 5856 5855 5853